,,,PA_Meas_PMT16A,,PR_Meas_QMR101_102,,RH_Meas_QMH101,,SR_Meas_QMS101,,TA_Meas_QMH101,,GenWind,,GenWind,
date,time,status,PA,status,PR,status,RH,status,SR,status,TA,status,DirAvg,status,SpdAvg,
2008-09-28, 00:00:04,VALID,1006.49,VALID,0,VALID,92.607,VALID,0,VALID,24.0557,VALID,82,VALID,0,
2008-09-28, 00:01:04,VALID,1006.5,VALID,0,VALID,92.6299,VALID,0,VALID,24.0539,VALID,82,VALID,0.201953,
2008-09-28, 00:02:04,VALID,1006.51,VALID,0,VALID,92.607,VALID,0.100563,VALID,24.0345,VALID,82,VALID,0.196484,
2008-09-28, 00:03:04,VALID,1006.49,VALID,0,VALID,92.5612,VALID,0,VALID,24.0132,VALID,82,VALID,0.302734,
2008-09-28, 00:04:04,VALID,1006.49,VALID,0,VALID,92.5917,VALID,0,VALID,24.0539,VALID,82,VALID,0.301953,
2008-09-28, 00:05:04,VALID,1006.53,VALID,0,VALID,92.607,VALID,0,VALID,24.0539,VALID,82,VALID,0,
2008-09-28, 00:06:04,VALID,1006.53,VALID,0,VALID,92.5765,VALID,0.100563,VALID,24.0539,VALID,82,VALID,0.101563,
2008-09-28, 00:07:04,VALID,1006.52,VALID,0,VALID,92.5612,VALID,0.100563,VALID,24.0539,VALID,82,VALID,0,
2008-09-28, 00:08:04,VALID,1006.52,VALID,0,VALID,92.546,VALID,0.100563,VALID,24.0734,VALID,82,VALID,0,
2008-09-28, 00:09:04,VALID,1006.53,VALID,0,VALID,92.5536,VALID,0,VALID,24.0521,VALID,82,VALID,0,
2008-09-28, 00:10:04,VALID,1006.49,VALID,0,VALID,92.5688,VALID,0,VALID,24.0521,VALID,82,VALID,0,
2008-09-28, 00:11:04,VALID,1006.49,VALID,0,VALID,92.6375,VALID,0.100563,VALID,24.0929,VALID,82,VALID,0.125781,
2008-09-28, 00:12:04,VALID,1006.52,VALID,0,VALID,92.5154,VALID,0,VALID,24.0929,VALID,82,VALID,0.339844,
2008-09-28, 00:13:04,VALID,1006.49,VALID,0,VALID,92.4544,VALID,0,VALID,24.0521,VALID,82,VALID,0.156641,
2008-09-28, 00:14:04,VALID,1006.5,VALID,0,VALID,92.4849,VALID,0.100563,VALID,24.0929,VALID,82,VALID,0,
2008-09-28, 00:15:04,VALID,1006.5,VALID,0,VALID,92.5002,VALID,0.100563,VALID,24.091,VALID,82,VALID,0,
2008-09-28, 00:16:04,VALID,1006.49,VALID,0,VALID,92.4925,VALID,0.100563,VALID,24.0716,VALID,82,VALID,0,
2008-09-28, 00:17:04,VALID,1006.47,VALID,0,VALID,92.4391,VALID,0,VALID,24.0716,VALID,82,VALID,0,
2008-09-28, 00:18:04,VALID,1006.47,VALID,0,VALID,92.4849,VALID,0.100563,VALID,24.0929,VALID,82,VALID,0.00117188,
2008-09-28, 00:19:04,VALID,1006.45,VALID,0,VALID,92.462,VALID,0.100563,VALID,24.0929,VALID,82,VALID,0.212109,
2008-09-28, 00:20:04,VALID,1006.43,VALID,0,VALID,92.4849,VALID,0,VALID,24.1336,VALID,82,VALID,0.177344,
2008-09-28, 00:21:04,VALID,1006.42,VALID,0,VALID,92.4773,VALID,0,VALID,24.0929,VALID,82,VALID,0,
2008-09-28, 00:22:04,VALID,1006.41,VALID,0,VALID,92.5688,VALID,0.100563,VALID,24.1123,VALID,82,VALID,0,
2008-09-28, 00:23:04,VALID,1006.41,VALID,0,VALID,92.5688,VALID,0.100563,VALID,24.0716,VALID,82,VALID,0.173047,
2008-09-28, 00:24:04,VALID,1006.38,VALID,0,VALID,92.6299,VALID,0,VALID,24.0947,VALID,82,VALID,0.248437,
2008-09-28, 00:25:04,VALID,1006.34,VALID,0,VALID,92.6756,VALID,0,VALID,24.0752,VALID,82,VALID,0.489062,
2008-09-28, 00:26:04,VALID,1006.31,VALID,0,VALID,92.7367,VALID,0,VALID,24.0752,VALID,82,VALID,0.112891,
2008-09-28, 00:27:04,VALID,1006.31,VALID,0,VALID,92.7977,VALID,0,VALID,24.0539,VALID,82,VALID,0.167969,
2008-09-28, 00:28:04,VALID,1006.33,VALID,0,VALID,92.729,VALID,0,VALID,24.0752,VALID,82,VALID,0.473047,
2008-09-28, 00:29:04,VALID,1006.3,VALID,0,VALID,92.7596,VALID,0,VALID,24.0557,VALID,82,VALID,0.351172,
2008-09-28, 00:30:04,VALID,1006.3,VALID,0,VALID,92.7214,VALID,0,VALID,24.0965,VALID,82,VALID,0.259375,
2008-09-28, 00:31:04,VALID,1006.3,VALID,0,VALID,92.729,VALID,0,VALID,24.0557,VALID,82,VALID,0.464453,
2008-09-28, 00:32:04,VALID,1006.29,VALID,0,VALID,92.668,VALID,0,VALID,24.0752,VALID,82,VALID,0.220703,
2008-09-28, 00:33:04,VALID,1006.27,VALID,0,VALID,92.6146,VALID,0,VALID,24.0752,VALID,85,VALID,0.703125,
2008-09-28, 00:34:04,VALID,1006.27,VALID,0,VALID,92.5002,VALID,0,VALID,24.0947,VALID,94,VALID,0.371094,
2008-09-28, 00:35:04,VALID,1006.26,VALID,0,VALID,92.4086,VALID,0,VALID,24.1318,VALID,94,VALID,0.323047,
2008-09-28, 00:36:04,VALID,1006.23,VALID,0,VALID,92.2713,VALID,0,VALID,24.1513,VALID,94,VALID,0.15625,
2008-09-28, 00:37:04,VALID,1006.21,VALID,0,VALID,92.1187,VALID,0,VALID,24.1707,VALID,94,VALID,0.160156,
2008-09-28, 00:38:04,VALID,1006.21,VALID,0,VALID,92.0043,VALID,0,VALID,24.1902,VALID,94,VALID,0.398438,
2008-09-28, 00:39:04,VALID,1006.2,VALID,0,VALID,91.8899,VALID,0,VALID,24.1902,VALID,94,VALID,0.247656,
2008-09-28, 00:40:04,VALID,1006.17,VALID,0,VALID,91.7983,VALID,0,VALID,24.2097,VALID,94,VALID,0.238281,
2008-09-28, 00:41:04,VALID,1006.14,VALID,0,VALID,91.7602,VALID,0,VALID,24.2097,VALID,93,VALID,0.0121094,
2008-09-28, 00:42:04,VALID,1006.15,VALID,0,VALID,91.7831,VALID,0,VALID,24.2097,VALID,93,VALID,0.0726563,
2008-09-28, 00:43:04,VALID,1006.13,VALID,0,VALID,91.8059,VALID,0,VALID,24.2291,VALID,93,VALID,0,
2008-09-28, 00:44:04,VALID,1006.11,VALID,0,VALID,91.8594,VALID,0,VALID,24.231,VALID,93,VALID,0.0015625,
2008-09-28, 00:45:04,VALID,1006.11,VALID,0,VALID,91.8594,VALID,0,VALID,24.2115,VALID,93,VALID,0.152734,
2008-09-28, 00:46:04,VALID,1006.09,VALID,0,VALID,91.9128,VALID,0,VALID,24.1902,VALID,93,VALID,0.228516,
2008-09-28, 00:47:04,VALID,1006.06,VALID,0,VALID,92.0119,VALID,0,VALID,24.1707,VALID,78,VALID,0.478516,
2008-09-28, 00:48:04,VALID,1006.07,VALID,0,VALID,92.073,VALID,0,VALID,24.1707,VALID,77,VALID,0.405469,
2008-09-28, 00:49:04,VALID,1006.05,VALID,0,VALID,92.1187,VALID,0,VALID,24.1902,VALID,77,VALID,0.324219,
2008-09-28, 00:50:04,VALID,1006.05,VALID,0,VALID,92.195,VALID,0,VALID,24.231,VALID,77,VALID,0.295703,
2008-09-28, 00:51:04,VALID,1006.05,VALID,0,VALID,92.3018,VALID,0,VALID,24.231,VALID,77,VALID,0.237109,
2008-09-28, 00:52:04,VALID,1006.04,VALID,0,VALID,92.3629,VALID,0,VALID,24.2291,VALID,77,VALID,0.301562,
2008-09-28, 00:53:04,VALID,1006.03,VALID,0,VALID,92.4086,VALID,0,VALID,24.2504,VALID,77,VALID,0.314453,
2008-09-28, 00:54:04,VALID,1006,VALID,0,VALID,92.3323,VALID,0,VALID,24.2097,VALID,77,VALID,0.383594,
2008-09-28, 00:55:04,VALID,1005.97,VALID,0,VALID,92.4239,VALID,0,VALID,24.2097,VALID,77,VALID,0.332031,
2008-09-28, 00:56:04,VALID,1005.96,VALID,0,VALID,92.4925,VALID,0,VALID,24.2097,VALID,77,VALID,0.335938,
2008-09-28, 00:57:04,VALID,1005.92,VALID,0,VALID,92.5765,VALID,0,VALID,24.2097,VALID,77,VALID,0.279687,
2008-09-28, 00:58:04,VALID,1005.92,VALID,0,VALID,92.6528,VALID,0,VALID,24.231,VALID,77,VALID,0.292188,
2008-09-28, 00:59:04,VALID,1005.88,VALID,0,VALID,92.7443,VALID,0,VALID,24.231,VALID,77,VALID,0.248437,
2008-09-28, 01:00:04,VALID,1005.89,VALID,0,VALID,92.7748,VALID,0,VALID,24.231,VALID,77,VALID,0.317578,
2008-09-28, 01:01:04,VALID,1005.85,VALID,0,VALID,92.7901,VALID,0,VALID,24.231,VALID,77,VALID,0.2875,
2008-09-28, 01:02:04,VALID,1005.83,VALID,0,VALID,92.8206,VALID,0,VALID,24.231,VALID,77,VALID,0.187891,
2008-09-28, 01:03:04,VALID,1005.85,VALID,0,VALID,92.8892,VALID,0,VALID,24.231,VALID,77,VALID,0.151172,
2008-09-28, 01:04:04,VALID,1005.81,VALID,0,VALID,92.9579,VALID,0,VALID,24.231,VALID,77,VALID,0.333984,
2008-09-28, 01:05:04,VALID,1005.81,VALID,0,VALID,92.9961,VALID,0,VALID,24.2504,VALID,77,VALID,0.194531,
2008-09-28, 01:06:04,VALID,1005.81,VALID,0,VALID,92.9655,VALID,0,VALID,24.2291,VALID,77,VALID,0.276563,
2008-09-28, 01:07:04,VALID,1005.81,VALID,0,VALID,93.0037,VALID,0,VALID,24.231,VALID,77,VALID,0.207422,
2008-09-28, 01:08:04,VALID,1005.77,VALID,0,VALID,92.9961,VALID,0,VALID,24.231,VALID,77,VALID,0.0570313,
2008-09-28, 01:09:04,VALID,1005.78,VALID,0,VALID,92.9579,VALID,0.100563,VALID,24.1884,VALID,77,VALID,0,
2008-09-28, 01:10:04,VALID,1005.78,VALID,0,VALID,93.0037,VALID,0,VALID,24.2097,VALID,77,VALID,0,
2008-09-28, 01:11:04,VALID,1005.74,VALID,0,VALID,93.0342,VALID,0.100563,VALID,24.1902,VALID,77,VALID,0,
2008-09-28, 01:12:04,VALID,1005.71,VALID,0,VALID,93.0266,VALID,0.100563,VALID,24.1689,VALID,77,VALID,0.0273438,
2008-09-28, 01:13:04,VALID,1005.7,VALID,0,VALID,93.1105,VALID,0.100563,VALID,24.1902,VALID,77,VALID,0.127734,
2008-09-28, 01:14:04,VALID,1005.7,VALID,0,VALID,93.1181,VALID,0.100563,VALID,24.1707,VALID,77,VALID,0.00273437,
2008-09-28, 01:15:04,VALID,1005.68,VALID,0,VALID,93.0571,VALID,0.100563,VALID,24.1707,VALID,77,VALID,0.294922,
2008-09-28, 01:16:04,VALID,1005.7,VALID,0,VALID,93.08,VALID,0.100563,VALID,24.1318,VALID,77,VALID,0.494531,
2008-09-28, 01:17:04,VALID,1005.68,VALID,0,VALID,93.0723,VALID,0.100563,VALID,24.1123,VALID,77,VALID,0.519922,
2008-09-28, 01:18:04,VALID,1005.67,VALID,0,VALID,93.0418,VALID,0,VALID,24.0929,VALID,76,VALID,0.194531,
2008-09-28, 01:19:04,VALID,1005.67,VALID,0,VALID,93.0495,VALID,0.100563,VALID,24.0716,VALID,76,VALID,0.145703,
2008-09-28, 01:20:04,VALID,1005.69,VALID,0,VALID,92.9732,VALID,0.100563,VALID,24.0326,VALID,76,VALID,0.113672,
2008-09-28, 01:21:04,VALID,1005.67,VALID,0,VALID,92.9808,VALID,0.100563,VALID,24.0734,VALID,76,VALID,0.199609,
2008-09-28, 01:22:04,VALID,1005.67,VALID,0,VALID,92.9961,VALID,0.100563,VALID,24.0539,VALID,76,VALID,0.0582031,
2008-09-28, 01:23:04,VALID,1005.69,VALID,0,VALID,93.0266,VALID,0.100563,VALID,24.0132,VALID,76,VALID,0.0828125,
2008-09-28, 01:24:04,VALID,1005.69,VALID,0,VALID,93.0495,VALID,0.100563,VALID,24.0345,VALID,76,VALID,0,
2008-09-28, 01:25:04,VALID,1005.68,VALID,0,VALID,93.0418,VALID,0.100563,VALID,24.0539,VALID,76,VALID,0.0015625,
2008-09-28, 01:26:04,VALID,1005.69,VALID,0,VALID,93.0113,VALID,0.100563,VALID,24.0345,VALID,75,VALID,0.321875,
2008-09-28, 01:27:04,VALID,1005.66,VALID,0,VALID,92.9579,VALID,0.100563,VALID,24.0539,VALID,70,VALID,0.459375,
2008-09-28, 01:28:04,VALID,1005.68,VALID,0,VALID,92.9198,VALID,0.100563,VALID,24.0326,VALID,52,VALID,0.520312,
2008-09-28, 01:29:04,VALID,1005.7,VALID,0,VALID,92.9121,VALID,0.100563,VALID,24.0734,VALID,52,VALID,0.4625,
2008-09-28, 01:30:04,VALID,1005.72,VALID,0,VALID,92.8892,VALID,0.100563,VALID,24.0521,VALID,50,VALID,0.536719,
2008-09-28, 01:31:04,VALID,1005.71,VALID,0,VALID,92.8892,VALID,0.100563,VALID,24.091,VALID,50,VALID,0.383984,
2008-09-28, 01:32:04,VALID,1005.7,VALID,0,VALID,92.8358,VALID,0.100563,VALID,24.0716,VALID,50,VALID,0.247656,
2008-09-28, 01:33:04,VALID,1005.69,VALID,0,VALID,92.813,VALID,0.100563,VALID,24.0929,VALID,50,VALID,0,
2008-09-28, 01:34:04,VALID,1005.68,VALID,0,VALID,92.7367,VALID,0.100563,VALID,24.091,VALID,50,VALID,0.332422,
2008-09-28, 01:35:04,VALID,1005.66,VALID,0,VALID,92.6909,VALID,0.100563,VALID,24.091,VALID,50,VALID,0.135547,
2008-09-28, 01:36:04,VALID,1005.69,VALID,0,VALID,92.607,VALID,0.100563,VALID,24.1123,VALID,50,VALID,0.277734,
2008-09-28, 01:37:04,VALID,1005.7,VALID,0,VALID,92.5536,VALID,0.100563,VALID,24.1318,VALID,51,VALID,0.191016,
2008-09-28, 01:38:04,VALID,1005.68,VALID,0,VALID,92.5383,VALID,0.100563,VALID,24.1105,VALID,51,VALID,0.0316406,
2008-09-28, 01:39:04,VALID,1005.66,VALID,0,VALID,92.5078,VALID,0,VALID,24.1318,VALID,51,VALID,0.291406,
2008-09-28, 01:40:04,VALID,1005.7,VALID,0,VALID,92.4391,VALID,0.100563,VALID,24.1318,VALID,51,VALID,0.315234,
2008-09-28, 01:41:04,VALID,1005.69,VALID,0,VALID,92.4391,VALID,0.100563,VALID,24.1318,VALID,51,VALID,0.0609375,
2008-09-28, 01:42:04,VALID,1005.69,VALID,0,VALID,92.4391,VALID,0.100563,VALID,24.1123,VALID,51,VALID,0.151172,
2008-09-28, 01:43:04,VALID,1005.7,VALID,0,VALID,92.462,VALID,0.100563,VALID,24.1123,VALID,51,VALID,0.169531,
2008-09-28, 01:44:04,VALID,1005.7,VALID,0,VALID,92.462,VALID,0.100563,VALID,24.091,VALID,51,VALID,0.0730469,
2008-09-28, 01:45:04,VALID,1005.71,VALID,0,VALID,92.4697,VALID,0,VALID,24.0716,VALID,51,VALID,0.137891,
2008-09-28, 01:46:04,VALID,1005.7,VALID,0,VALID,92.4544,VALID,0.100563,VALID,24.0929,VALID,51,VALID,0.0429688,
2008-09-28, 01:47:04,VALID,1005.69,VALID,0,VALID,92.4925,VALID,0,VALID,24.0929,VALID,51,VALID,0.185937,
2008-09-28, 01:48:04,VALID,1005.7,VALID,0,VALID,92.462,VALID,0,VALID,24.0734,VALID,51,VALID,0,
2008-09-28, 01:49:04,VALID,1005.7,VALID,0,VALID,92.4697,VALID,0.100563,VALID,24.0716,VALID,51,VALID,0,
2008-09-28, 01:50:04,VALID,1005.66,VALID,0,VALID,92.4697,VALID,0,VALID,24.0929,VALID,51,VALID,0.126953,
2008-09-28, 01:51:04,VALID,1005.67,VALID,0,VALID,92.4849,VALID,0,VALID,24.0716,VALID,51,VALID,0.00273437,
2008-09-28, 01:52:04,VALID,1005.67,VALID,0,VALID,92.4086,VALID,0,VALID,24.0521,VALID,51,VALID,0.228516,
2008-09-28, 01:53:04,VALID,1005.66,VALID,0,VALID,92.3552,VALID,0.100563,VALID,24.0734,VALID,51,VALID,0,
2008-09-28, 01:54:04,VALID,1005.66,VALID,0,VALID,92.34,VALID,0.100563,VALID,24.0521,VALID,51,VALID,0.0046875,
2008-09-28, 01:55:04,VALID,1005.66,VALID,0,VALID,92.2484,VALID,0.100563,VALID,24.0734,VALID,51,VALID,0.205469,
2008-09-28, 01:56:04,VALID,1005.6,VALID,0,VALID,92.2942,VALID,0.100563,VALID,24.0716,VALID,51,VALID,0,
2008-09-28, 01:57:04,VALID,1005.6,VALID,0,VALID,92.2179,VALID,0,VALID,24.0716,VALID,51,VALID,0,
2008-09-28, 01:58:04,VALID,1005.59,VALID,0,VALID,92.2179,VALID,0.100563,VALID,24.0716,VALID,51,VALID,0,
2008-09-28, 01:59:04,VALID,1005.57,VALID,0,VALID,92.2484,VALID,0.100563,VALID,24.0734,VALID,51,VALID,0,
2008-09-28, 02:00:04,VALID,1005.55,VALID,0,VALID,92.2789,VALID,0.100563,VALID,24.0716,VALID,51,VALID,0,
2008-09-28, 02:01:04,VALID,1005.54,VALID,0,VALID,92.4391,VALID,0.100563,VALID,24.091,VALID,51,VALID,0,
2008-09-28, 02:02:04,VALID,1005.52,VALID,0,VALID,92.4391,VALID,0.100563,VALID,24.1123,VALID,51,VALID,0,
2008-09-28, 02:03:04,VALID,1005.48,VALID,0,VALID,92.5154,VALID,0.100563,VALID,24.1123,VALID,51,VALID,0,
2008-09-28, 02:04:04,VALID,1005.49,VALID,0,VALID,92.5917,VALID,0,VALID,24.1105,VALID,51,VALID,0,
2008-09-28, 02:05:04,VALID,1005.46,VALID,0,VALID,92.5612,VALID,0,VALID,24.1318,VALID,51,VALID,0,
2008-09-28, 02:06:04,VALID,1005.47,VALID,0,VALID,92.5307,VALID,0.100563,VALID,24.1123,VALID,51,VALID,0,
2008-09-28, 02:07:04,VALID,1005.45,VALID,0,VALID,92.5993,VALID,0.100563,VALID,24.0716,VALID,51,VALID,0,
2008-09-28, 02:08:04,VALID,1005.45,VALID,0,VALID,92.5383,VALID,0,VALID,24.091,VALID,51,VALID,0,
2008-09-28, 02:09:04,VALID,1005.48,VALID,0,VALID,92.6222,VALID,0,VALID,24.0734,VALID,51,VALID,0,
2008-09-28, 02:10:04,VALID,1005.47,VALID,0,VALID,92.5993,VALID,0,VALID,24.0752,VALID,51,VALID,0,
2008-09-28, 02:11:04,VALID,1005.46,VALID,0,VALID,92.607,VALID,0,VALID,24.0752,VALID,50,VALID,0,
2008-09-28, 02:12:04,VALID,1005.47,VALID,0,VALID,92.6604,VALID,0,VALID,24.0539,VALID,50,VALID,0,
2008-09-28, 02:13:04,VALID,1005.45,VALID,0,VALID,92.7367,VALID,0,VALID,24.0947,VALID,50,VALID,0,
2008-09-28, 02:14:04,VALID,1005.47,VALID,0,VALID,92.7519,VALID,0,VALID,24.0734,VALID,50,VALID,0,
2008-09-28, 02:15:04,VALID,1005.44,VALID,0,VALID,92.8282,VALID,0,VALID,24.1142,VALID,50,VALID,0,
2008-09-28, 02:16:04,VALID,1005.42,VALID,0,VALID,92.9198,VALID,0,VALID,24.0734,VALID,50,VALID,0,
2008-09-28, 02:17:04,VALID,1005.38,VALID,0,VALID,92.935,VALID,0,VALID,24.0929,VALID,50,VALID,0,
2008-09-28, 02:18:04,VALID,1005.41,VALID,0,VALID,92.9655,VALID,0,VALID,24.1142,VALID,50,VALID,0,
2008-09-28, 02:19:04,VALID,1005.39,VALID,0,VALID,92.9579,VALID,0,VALID,24.0929,VALID,50,VALID,0,
2008-09-28, 02:20:04,VALID,1005.38,VALID,0,VALID,92.9808,VALID,0,VALID,24.1142,VALID,50,VALID,0,
2008-09-28, 02:21:04,VALID,1005.39,VALID,0,VALID,92.9961,VALID,0,VALID,24.0929,VALID,50,VALID,0,
2008-09-28, 02:22:04,VALID,1005.37,VALID,0,VALID,93.0266,VALID,0,VALID,24.0929,VALID,50,VALID,0,
2008-09-28, 02:23:04,VALID,1005.36,VALID,0,VALID,93.0189,VALID,0,VALID,24.1142,VALID,50,VALID,0,
2008-09-28, 02:24:04,VALID,1005.36,VALID,0,VALID,92.9808,VALID,0,VALID,24.1142,VALID,50,VALID,0,
2008-09-28, 02:25:04,VALID,1005.37,VALID,0,VALID,92.9961,VALID,0,VALID,24.1336,VALID,50,VALID,0,
2008-09-28, 02:26:04,VALID,1005.37,VALID,0,VALID,93.0113,VALID,0,VALID,24.1142,VALID,50,VALID,0,
2008-09-28, 02:27:04,VALID,1005.36,VALID,0,VALID,92.9732,VALID,0,VALID,24.0947,VALID,50,VALID,0,
2008-09-28, 02:28:04,VALID,1005.35,VALID,0,VALID,93.0189,VALID,0,VALID,24.1142,VALID,50,VALID,0,
2008-09-28, 02:29:04,VALID,1005.32,VALID,0,VALID,93.0418,VALID,0,VALID,24.1336,VALID,50,VALID,0,
2008-09-28, 02:30:04,VALID,1005.3,VALID,0,VALID,93.0647,VALID,0,VALID,24.0947,VALID,50,VALID,0,
2008-09-28, 02:31:04,VALID,1005.3,VALID,0,VALID,93.0571,VALID,0,VALID,24.0947,VALID,50,VALID,0,
2008-09-28, 02:32:04,VALID,1005.26,VALID,0,VALID,93.1257,VALID,0,VALID,24.0947,VALID,50,VALID,0,
2008-09-28, 02:33:04,VALID,1005.27,VALID,0,VALID,93.1563,VALID,0,VALID,24.0734,VALID,50,VALID,0,
2008-09-28, 02:34:04,VALID,1005.24,VALID,0,VALID,93.2097,VALID,0,VALID,24.0539,VALID,50,VALID,0,
2008-09-28, 02:35:04,VALID,1005.22,VALID,0,VALID,93.2097,VALID,0,VALID,24.0539,VALID,50,VALID,0,
2008-09-28, 02:36:04,VALID,1005.19,VALID,0,VALID,93.2554,VALID,0,VALID,24.0752,VALID,50,VALID,0,
2008-09-28, 02:37:04,VALID,1005.18,VALID,0,VALID,93.3012,VALID,0,VALID,24.0752,VALID,50,VALID,0,
2008-09-28, 02:38:04,VALID,1005.17,VALID,0,VALID,93.3699,VALID,0,VALID,24.0345,VALID,50,VALID,0,
2008-09-28, 02:39:04,VALID,1005.15,VALID,0,VALID,93.3851,VALID,0,VALID,24.0345,VALID,50,VALID,0,
2008-09-28, 02:40:04,VALID,1005.16,VALID,0,VALID,93.4309,VALID,0,VALID,24.0345,VALID,50,VALID,0,
2008-09-28, 02:41:04,VALID,1005.15,VALID,0,VALID,93.4462,VALID,0,VALID,24.0557,VALID,50,VALID,0,
2008-09-28, 02:42:04,VALID,1005.16,VALID,0,VALID,93.4309,VALID,0,VALID,24.0557,VALID,50,VALID,0,
2008-09-28, 02:43:04,VALID,1005.13,VALID,0,VALID,93.4385,VALID,0,VALID,24.015,VALID,50,VALID,0,
2008-09-28, 02:44:04,VALID,1005.12,VALID,0,VALID,93.4538,VALID,0,VALID,24.015,VALID,50,VALID,0,
2008-09-28, 02:45:04,VALID,1005.1,VALID,0,VALID,93.4385,VALID,0,VALID,24.015,VALID,50,VALID,0,
2008-09-28, 02:46:04,VALID,1005.08,VALID,0,VALID,93.3699,VALID,0,VALID,23.9973,VALID,50,VALID,0.206641,
2008-09-28, 02:47:04,VALID,1005.1,VALID,0,VALID,93.2478,VALID,0,VALID,23.9584,VALID,41,VALID,0.736719,
2008-09-28, 02:48:04,VALID,1005.11,VALID,0,VALID,93.2859,VALID,0,VALID,23.9177,VALID,41,VALID,0.629687,
2008-09-28, 02:49:04,VALID,1005.08,VALID,0,VALID,93.3317,VALID,0,VALID,23.8982,VALID,41,VALID,0.571484,
2008-09-28, 02:50:04,VALID,1005.11,VALID,0,VALID,93.408,VALID,0,VALID,23.8787,VALID,41,VALID,0.383984,
2008-09-28, 02:51:04,VALID,1005.11,VALID,0,VALID,93.4767,VALID,0,VALID,23.8982,VALID,41,VALID,0.264062,
2008-09-28, 02:52:04,VALID,1005.11,VALID,0,VALID,93.5682,VALID,0,VALID,23.9195,VALID,41,VALID,0.344922,
2008-09-28, 02:53:04,VALID,1005.08,VALID,0,VALID,93.5606,VALID,0,VALID,23.9195,VALID,41,VALID,0.117188,
2008-09-28, 02:54:04,VALID,1005.09,VALID,0,VALID,93.6445,VALID,0,VALID,23.9389,VALID,41,VALID,0,
2008-09-28, 02:55:04,VALID,1005.04,VALID,0,VALID,93.6903,VALID,0,VALID,23.9584,VALID,41,VALID,0,
2008-09-28, 02:56:04,VALID,1005.05,VALID,0,VALID,93.6521,VALID,0,VALID,23.9584,VALID,41,VALID,0,
2008-09-28, 02:57:04,VALID,1005,VALID,0,VALID,93.6292,VALID,0,VALID,23.9371,VALID,41,VALID,0,
2008-09-28, 02:58:04,VALID,1004.97,VALID,0,VALID,93.6292,VALID,0,VALID,23.9779,VALID,41,VALID,0,
2008-09-28, 02:59:04,VALID,1004.94,VALID,0,VALID,93.5987,VALID,0,VALID,23.9779,VALID,41,VALID,0,
2008-09-28, 03:00:04,VALID,1004.95,VALID,0,VALID,93.5987,VALID,0,VALID,23.9566,VALID,41,VALID,0.150781,
2008-09-28, 03:01:04,VALID,1004.92,VALID,0,VALID,93.5224,VALID,0,VALID,23.9779,VALID,41,VALID,0.538281,
2008-09-28, 03:02:04,VALID,1004.93,VALID,0,VALID,93.4462,VALID,0,VALID,23.9584,VALID,41,VALID,0.708594,
2008-09-28, 03:03:04,VALID,1004.94,VALID,0,VALID,93.4462,VALID,0,VALID,23.9177,VALID,40,VALID,0.503125,
2008-09-28, 03:04:04,VALID,1004.92,VALID,0,VALID,93.4538,VALID,0,VALID,23.9389,VALID,40,VALID,0.468359,
2008-09-28, 03:05:04,VALID,1004.91,VALID,0,VALID,93.4996,VALID,0,VALID,23.9389,VALID,40,VALID,0.377344,
2008-09-28, 03:06:04,VALID,1004.95,VALID,0,VALID,93.5377,VALID,0,VALID,23.9177,VALID,40,VALID,0.347656,
2008-09-28, 03:07:04,VALID,1004.96,VALID,0,VALID,93.5987,VALID,0,VALID,23.9177,VALID,40,VALID,0.208984,
2008-09-28, 03:08:04,VALID,1004.97,VALID,0,VALID,93.6064,VALID,0,VALID,23.9177,VALID,40,VALID,0.360156,
2008-09-28, 03:09:04,VALID,1004.99,VALID,0,VALID,93.5835,VALID,0,VALID,23.8982,VALID,40,VALID,0.442969,
2008-09-28, 03:10:04,VALID,1005.01,VALID,0,VALID,93.6598,VALID,0,VALID,23.9,VALID,40,VALID,0.352734,
2008-09-28, 03:11:04,VALID,1005.02,VALID,0,VALID,93.6521,VALID,0,VALID,23.8982,VALID,40,VALID,0.288672,
2008-09-28, 03:12:04,VALID,1005.03,VALID,0,VALID,93.6598,VALID,0,VALID,23.8787,VALID,40,VALID,0.165625,
2008-09-28, 03:13:04,VALID,1005,VALID,0,VALID,93.7361,VALID,0,VALID,23.8787,VALID,40,VALID,0.0910156,
2008-09-28, 03:14:04,VALID,1005,VALID,0,VALID,93.7208,VALID,0,VALID,23.8787,VALID,40,VALID,0,
2008-09-28, 03:15:04,VALID,1005,VALID,0,VALID,93.6903,VALID,0,VALID,23.9,VALID,40,VALID,0,
2008-09-28, 03:16:04,VALID,1004.99,VALID,0,VALID,93.7055,VALID,0,VALID,23.8805,VALID,40,VALID,0,
2008-09-28, 03:17:04,VALID,1005,VALID,0,VALID,93.7208,VALID,0,VALID,23.8787,VALID,40,VALID,0,
2008-09-28, 03:18:04,VALID,1005,VALID,0,VALID,93.7437,VALID,0,VALID,23.9,VALID,40,VALID,0,
2008-09-28, 03:19:04,VALID,1005,VALID,0,VALID,93.6826,VALID,0,VALID,23.8787,VALID,40,VALID,0,
2008-09-28, 03:20:04,VALID,1004.99,VALID,0,VALID,93.6979,VALID,0,VALID,23.9,VALID,40,VALID,0,
2008-09-28, 03:21:04,VALID,1005.01,VALID,0,VALID,93.7513,VALID,0,VALID,23.9,VALID,40,VALID,0,
2008-09-28, 03:22:04,VALID,1005.03,VALID,0,VALID,93.7589,VALID,0,VALID,23.9195,VALID,40,VALID,0.290625,
2008-09-28, 03:23:04,VALID,1005.01,VALID,0,VALID,93.7513,VALID,0,VALID,23.9177,VALID,40,VALID,0.478125,
2008-09-28, 03:24:04,VALID,1005.05,VALID,0,VALID,93.7208,VALID,0,VALID,23.8982,VALID,40,VALID,0.521875,
2008-09-28, 03:25:04,VALID,1005.06,VALID,0,VALID,93.7284,VALID,0,VALID,23.8982,VALID,40,VALID,0.490625,
2008-09-28, 03:26:04,VALID,1005.07,VALID,0,VALID,93.7284,VALID,0,VALID,23.8982,VALID,40,VALID,0.242188,
2008-09-28, 03:27:04,VALID,1005.08,VALID,0,VALID,93.7361,VALID,0,VALID,23.8787,VALID,40,VALID,0.371875,
2008-09-28, 03:28:04,VALID,1005.06,VALID,0,VALID,93.7971,VALID,0,VALID,23.8787,VALID,40,VALID,0.397266,
2008-09-28, 03:29:04,VALID,1005.05,VALID,0,VALID,93.82,VALID,0,VALID,23.9018,VALID,40,VALID,0.473047,
2008-09-28, 03:30:04,VALID,1005.06,VALID,0,VALID,93.8276,VALID,0,VALID,23.8611,VALID,40,VALID,0.314063,
2008-09-28, 03:31:04,VALID,1005.03,VALID,0,VALID,93.881,VALID,0,VALID,23.8398,VALID,40,VALID,0.320703,
2008-09-28, 03:32:04,VALID,1005.04,VALID,0,VALID,93.8963,VALID,0,VALID,23.8203,VALID,40,VALID,0.160938,
2008-09-28, 03:33:04,VALID,1005.05,VALID,0,VALID,93.9191,VALID,0,VALID,23.8203,VALID,40,VALID,0,
2008-09-28, 03:34:04,VALID,1005.04,VALID,0,VALID,93.9268,VALID,0,VALID,23.8203,VALID,40,VALID,0,
2008-09-28, 03:35:04,VALID,1005,VALID,0,VALID,93.9268,VALID,0,VALID,23.8009,VALID,40,VALID,0,
2008-09-28, 03:36:04,VALID,1004.98,VALID,0,VALID,93.9344,VALID,0,VALID,23.7814,VALID,40,VALID,0,
2008-09-28, 03:37:04,VALID,1005.01,VALID,0,VALID,93.9497,VALID,0,VALID,23.8009,VALID,40,VALID,0,
2008-09-28, 03:38:04,VALID,1004.97,VALID,0,VALID,93.9725,VALID,0,VALID,23.7619,VALID,40,VALID,0,
2008-09-28, 03:39:04,VALID,1004.95,VALID,0,VALID,93.9802,VALID,0,VALID,23.7619,VALID,40,VALID,0,
2008-09-28, 03:40:04,VALID,1004.94,VALID,0,VALID,93.9954,VALID,0,VALID,23.7619,VALID,40,VALID,0,
2008-09-28, 03:41:04,VALID,1004.97,VALID,0,VALID,94.0259,VALID,0.100563,VALID,23.7619,VALID,40,VALID,0,
2008-09-28, 03:42:04,VALID,1004.92,VALID,0,VALID,94.0412,VALID,0,VALID,23.7619,VALID,40,VALID,0,
2008-09-28, 03:43:04,VALID,1004.93,VALID,0,VALID,94.0565,VALID,0,VALID,23.7619,VALID,40,VALID,0,
2008-09-28, 03:44:04,VALID,1004.93,VALID,0,VALID,94.0336,VALID,0,VALID,23.7619,VALID,40,VALID,0,
2008-09-28, 03:45:04,VALID,1004.92,VALID,0,VALID,93.9497,VALID,0,VALID,23.7619,VALID,40,VALID,0,
2008-09-28, 03:46:04,VALID,1004.93,VALID,0,VALID,93.8886,VALID,0,VALID,23.7814,VALID,40,VALID,0.155469,
2008-09-28, 03:47:04,VALID,1004.91,VALID,0,VALID,93.8276,VALID,0,VALID,23.8009,VALID,40,VALID,0.209766,
2008-09-28, 03:48:04,VALID,1004.94,VALID,0,VALID,93.7513,VALID,0,VALID,23.8203,VALID,40,VALID,0.162109,
2008-09-28, 03:49:04,VALID,1004.94,VALID,0,VALID,93.7132,VALID,0,VALID,23.8221,VALID,40,VALID,0.344531,